YO8KGT-13 Weather Reports


Display with metric or nautical units.
time (UTC)temp
F
wind
direction
speed
MPH
gust
MPH
rain 1hr
in
rain 24hr
in
rain mn
in
humidity
%
barometer
mb
20260504183924 65 22 0.0 0.0 0.00 0.00 0.00 38 945.0
20260504182921 65 22 0.0 0.0 0.00 0.00 0.00 38 945.0
20260504182422 66 22 0.0 0.0 0.00 0.00 0.00 38 945.0
20260504181931 66 22 0.0 0.0 0.00 0.00 0.00 37 945.0
20260504181424 66 22 0.0 0.0 0.00 0.00 0.00 37 945.0
20260504180927 66 22 0.0 0.0 0.00 0.00 0.00 36 945.0
20260504180442 67 22 0.0 0.0 0.00 0.00 0.00 36 945.0
20260504175422 67 22 0.0 0.0 0.00 0.00 0.00 35 945.0
20260504174922 68 22 0.0 0.0 0.00 0.00 0.00 35 945.0
20260504174422 68 22 0.0 0.0 0.00 0.00 0.00 34 944.0
20260504173426 69 22 0.0 0.0 0.00 0.00 0.00 34 944.0
20260504172923 69 22 0.0 0.0 0.00 0.00 0.00 34 944.0
20260504172423 70 22 0.0 0.0 0.00 0.00 0.00 33 944.0
20260504171941 70 22 0.0 0.0 0.00 0.00 0.00 33 944.0
20260504171439 71 22 0.0 0.0 0.00 0.00 0.00 33 944.0
20260504170927 71 22 0.0 2.0 0.00 0.00 0.00 33 944.0
20260504150941 77 0 3.0 4.0 0.00 0.00 0.00 28 945.0
20260504150423 77 22 4.0 6.0 0.00 0.00 0.00 28 945.0
20260504140922 80 45 4.0 4.0 0.00 0.00 0.00 27 945.0
20260504140421 80 45 0.0 4.0 0.00 0.00 0.00 26 945.0
20260504130423 82 0 0.0 3.0 0.00 0.00 0.00 27 945.0
20260504110421 82 22 4.0 10.0 0.00 0.00 0.00 27 946.0
20260504100422 80 45 6.0 10.0 0.00 0.00 0.00 29 947.0
20260504080923 73 22 4.0 9.0 0.00 0.00 0.00 37 947.0
20260504080421 73 45 5.0 12.0 0.00 0.00 0.00 37 948.0
20260504050420 58 338 0.0 2.0 0.00 0.00 0.00 56 948.0
20260504045426 58 0 0.0 1.0 0.00 0.00 0.00 56 948.0
20260504042920 56 225 1.0 2.0 0.00 0.00 0.00 59 948.0
20260504042421 55 225 0.0 2.0 0.00 0.00 0.00 60 948.0
20260504041927 54 225 0.0 2.0 0.00 0.00 0.00 60 948.0
20260504041428 54 225 2.0 2.0 0.00 0.00 0.00 61 948.0
20260504040421 53 225 0.0 0.0 0.00 0.00 0.00 62 948.0
20260504035925 52 225 0.0 0.0 0.00 0.00 0.00 63 948.0
20260504034920 52 225 0.0 0.0 0.00 0.00 0.00 64 948.0
20260504033921 51 225 0.0 0.0 0.00 0.00 0.00 64 948.0
20260504033420 50 225 0.0 0.0 0.00 0.00 0.00 64 948.0
20260504032924 50 225 0.0 0.0 0.00 0.00 0.00 64 948.0
20260504032420 50 225 0.0 0.0 0.00 0.00 0.00 65 948.0
20260504031922 50 225 0.0 0.0 0.00 0.00 0.00 65 947.0
20260504031422 50 225 0.0 0.0 0.00 0.00 0.00 65 948.0
20260504030934 50 225 0.0 2.0 0.00 0.00 0.00 65 947.0
20260504025924 50 225 0.0 2.0 0.00 0.00 0.00 65 947.0
20260504025420 49 225 0.0 2.0 0.00 0.00 0.00 66 947.0
20260504024921 49 225 0.0 2.0 0.00 0.00 0.00 67 947.0
20260504024426 49 225 0.0 0.0 0.00 0.00 0.00 67 948.0
20260504023926 48 225 0.0 0.0 0.00 0.00 0.00 67 947.0
20260504023421 48 225 0.0 0.0 0.00 0.00 0.00 67 947.0
20260504022921 48 225 0.0 0.0 0.00 0.00 0.00 67 947.0
20260504022430 48 225 0.0 0.0 0.00 0.00 0.00 67 947.0
20260504021922 47 225 0.0 0.0 0.00 0.00 0.00 67 947.0
20260504020926 48 225 0.0 0.0 0.00 0.00 0.00 68 947.0
20260504020438 48 225 0.0 0.0 0.00 0.00 0.00 68 947.0
20260504015923 47 225 0.0 0.0 0.00 0.00 0.00 69 947.0
20260504015421 47 225 0.0 0.0 0.00 0.00 0.00 69 947.0
20260504014920 46 225 0.0 0.0 0.00 0.00 0.00 69 947.0
20260504013925 46 225 0.0 0.0 0.00 0.00 0.00 68 947.0
20260504013421 46 225 0.0 0.0 0.00 0.00 0.00 68 947.0
20260504012921 46 225 0.0 0.0 0.00 0.00 0.00 68 947.0
20260504012420 46 225 0.0 0.0 0.00 0.00 0.00 68 947.0
20260504011936 46 225 0.0 0.0 0.00 0.00 0.00 69 947.0
20260504011421 46 225 0.0 0.0 0.00 0.00 0.00 68 947.0
20260504005420 47 225 0.0 0.0 0.00 0.00 0.00 68 947.0
20260504002921 46 225 0.0 0.0 0.00 0.00 0.00 68 947.0
20260504002420 46 225 0.0 0.0 0.00 0.00 0.00 68 947.0
20260504001438 46 225 0.0 0.0 0.00 0.00 0.00 68 947.0
20260504000923 46 225 0.0 0.0 0.00 0.00 0.00 67 947.0
20260504000420 46 225 0.0 0.0 0.00 0.00 0.00 67 947.0
20260503234926 46 225 0.0 0.0 0.00 0.00 0.00 66 947.0
20260503234420 46 225 0.0 0.0 0.00 0.00 0.00 66 947.0
20260503232421 47 225 0.0 0.0 0.00 0.00 0.00 65 947.0
20260503231920 47 225 0.0 0.0 0.00 0.00 0.00 65 948.0
20260503231423 47 225 0.0 0.0 0.00 0.00 0.00 65 947.0
20260503230921 47 225 0.0 0.0 0.00 0.00 0.00 65 947.0
20260503225922 47 225 0.0 0.0 0.00 0.00 0.00 64 948.0
20260503224435 47 225 0.0 0.0 0.00 0.00 0.00 63 948.0
20260503223924 47 225 0.0 0.0 0.00 0.00 0.00 63 948.0
20260503222425 48 225 0.0 0.0 0.00 0.00 0.00 62 948.0
20260503221922 48 225 0.0 0.0 0.00 0.00 0.00 62 948.0
20260503221422 48 225 0.0 0.0 0.00 0.00 0.00 61 948.0
20260503213921 49 225 0.0 0.0 0.00 0.00 0.00 59 948.0
20260503213422 49 225 0.0 0.0 0.00 0.00 0.00 59 948.0
20260503210421 50 225 0.0 0.0 0.00 0.00 0.00 57 948.0
20260503205920 50 225 0.0 0.0 0.00 0.00 0.00 57 948.0
20260503205444 50 225 0.0 0.0 0.00 0.00 0.00 56 948.0
20260503204919 50 225 0.0 0.0 0.00 0.00 0.00 55 948.0
20260503204421 50 225 0.0 0.0 0.00 0.00 0.00 55 948.0
20260503203920 50 225 0.0 0.0 0.00 0.00 0.00 54 948.0
20260503203422 51 225 0.0 0.0 0.00 0.00 0.00 54 948.0
20260503202420 51 225 0.0 4.0 0.00 0.00 0.00 54 948.0
20260503201920 51 225 0.0 4.0 0.00 0.00 0.00 53 948.0
20260503201421 51 225 3.0 4.0 0.00 0.00 0.00 53 948.0
20260503200936 51 225 2.0 3.0 0.00 0.00 0.00 53 948.0
20260503200422 51 225 3.0 3.0 0.00 0.00 0.00 52 948.0
20260503195422 52 225 0.0 0.0 0.00 0.00 0.00 51 948.0
20260503194923 52 225 0.0 0.0 0.00 0.00 0.00 51 948.0
20260503194422 52 225 0.0 0.0 0.00 0.00 0.00 51 948.0
20260503193420 52 225 0.0 1.0 0.00 0.00 0.00 51 948.0
20260503191921 53 225 0.0 0.0 0.00 0.00 0.00 50 948.0
20260503190940 53 225 0.0 2.0 0.00 0.00 0.00 49 948.0
20260503190443 53 225 0.0 2.0 0.00 0.00 0.00 49 948.0
20260503185421 54 225 0.0 2.0 0.00 0.00 0.00 48 948.0